sat.trackr.live / text

‹ back to catalog

STARLINK-11177 [DTC]

NORAD 60118 · 2024-118F

PAYLOAD ACTIVE UNKNOWN

§ Identity

Operator
Country
US
Launch date
2024-06-24
Launch site
AFWTR
Launch vehicle
Mass (kg)
RCS (m²)

Purposes: comms

External: N2YO · Heavens-Above · Gunter

§ Orbital elements

Epoch: 2026-09-21T16:02:59.665632Z

Period
91.74 min
Inclination
53.1593°
Eccentricity
0.0001031
Mean motion
15.69699619 rev/d
Perigee alt
359.1 km
Apogee alt
360.5 km
Semi-major
6,737.9 km
B*
3.9702e-6
RAAN
335.1836°
Arg perigee
92.9379°
Mean anomaly
267.1757°
Rev number
12,877

§ Raw data

STARLINK-11177 [DTC]1 60118U 24118F   26264.66874613 -.00000108  00000+0  39702-5 0  99982 60118  53.1593 335.1836 0001031  92.9379 267.1757 15.69699619128778

JSON: /api/v1/satellites/60118 · /tle

For live sub-satellite position, see the globe view (requires WebGL).

§ Visibility from observer

Set your observer location to see the next 7 days of passes ≥ 10°. The values pass through the URL so the page stays shareable.

No JS? Fill the form by hand. The geolocation button needs JavaScript.